STARLINK-4383, 53473

Orbit data source: Space-Track

STARLINK-4383, 53473 is a payload satellite owned by SpaceX/Seattle (US) in SSO that was launched on Fri, 12 Aug 2022 UTC via an FALCON 9 launch vehicle from the Air Force Western Test Range (AFWTR). Payload-class satellites include a variety of spacecraft equipped with specific instruments for various scientific and technological missions. These include communications satellites like Starlink; space stations such as the ISS; scientific satellites like the Hubble; Earth observation satellites from companies like Planet Labs, Umbra, and HawkEye 360; GPS; miniature CubeSats for education and research; and military/defense satellites.

Loading next visibility...
Identifier
53473, 2022-099J
Orbit
SSO
Country
Flag of USUS
Related business
Manufacturer
SpaceX/Seattle
Mission
Operational Commercial Communications
Bus & Motor
STARLINK, Unknown motor
Mass
300 kg wet, ~275 kg dry
Launch date (UTC)
2022-08-12 (3 years ago)
Launch vehicle
FALCON 9
Launch site
Air Force Western Test Range (AFWTR)
Object type
Payload
Rocket body
Debris
Shape & HBR
Box + 1 Pan, 10.1 m
Radar Cross Section
13.562 m², Large (>1 m²)

Expand to show TLE details & history
Last TLE update: 13 hours ago

TLE from 13 hours ago
0 STARLINK-4383
1 53473U 22099J   25293.29834743  .00000250  00000-0  21507-4 0  9991
2 53473  97.6026  52.8730 0000856  79.5566 280.5757 15.05646834174925
Epoch: 2025-10-20T07:09Z
TLE epoch observation values (Epoch: 2025-10-20T07:09:37.217Z)
Latitude
-0.00007°
Longitude
-83.53473°
Altitude
552.477 km
Speed
7.586 km/s
True Right ascension
03h 31m 29s
True Declination
0° 00' 00"
Sunlit
Object was in full shadow at epoch
Visualization orbit readout
Latitude
Unknown
Longitude
Unknown
Altitude
Unknown
Speed
Unknown
Apparent Right ascension
Unknown
Apparent Declination
Unknown
Sunlit
N/A
Visualization observer readout
Local Sidereal Time
15:08:22
Azimuth
Unknown
Elevation
Unknown
Doppler factor
Unknown
Orbital elements
Apogee altitude
547.107 km
Perigee altitude
545.922 km
Semi-major axis
6,924.651 km
Eccentricity
0.00009
Inclination
97.6026°
RAAN
52.873°
Arg. of periapsis
79.5566°
True anomaly
280.56606°
Mean anomaly
280.5757°
Eccentric anomaly
280.57088°
Mean motion
3.76657 °/min
Orbital period
95.58 mins
BSTAR
0.000021507
Loading maneuver chart data...
Computing Atmospheric mass density...
Loading historical data...
Loading historical data...
Loading historical data...
Loading historical data...
Loading historical data...
Loading historical data...
Loading historical data...

Documentation

Showing up to 5 results
|